CAPE
188 46 0 0 19 56 46 104 242 293 446 515 820 966 1036 1146 1029 884 880 776 499 193 429 285 414 248 136 38 113 313 305 186 237 343 293 241 239 221 182 106 44 49 47
302 283 46 12 10 2 79 167 424 367 459 572 759 1160 974 1189 730 679 428 374 536 445 217 175 207 254 214 125 140 266 248 123 139 142 94 54 86 162 199 182 134 69 53
277 289 228 101 40 22 42 39 43 385 1052 1097 1124 1149 1066 829 769 746 744 563 450 344 348 256 293 208 127 168 376 303 217 136 104 75 99 30 53 36 87 120 132 115 87
172 277 285 259 177 124 95 31 19 17 262 1268 1411 1289 997 1047 822 706 446 257 313 461 444 645 354 121 222 237 264 363 235 196 96 46 50 46 17 22 44 49 132 125 141
53 239 428 392 374 314 285 299 272 138 75 704 1595 1302 1416 1126 1065 902 802 864 718 618 386 425 173 47 46 60 76 188 217 179 89 12 18 78 84 17 79 98 100 96 73
170 201 597 658 612 548 576 662 713 733 323 508 975 1615 1446 1320 1023 614 476 275 51 0 15 5 12 8 6 0 60 69 91 125 94 44 31 8 151 190 130 80 93 79 88
140 291 651 1032 916 885 821 913 988 1201 731 689 1782 1699 1483 1341 940 427 106 0 0 0 0 0 0 0 0 0 0 0 0 0 4 10 14 2 14 122 93 113 110 110 77
24 84 639 1066 1305 1296 1270 1328 1615 1663 1637 2071 1926 1653 1670 1692 950 429 16 0 0 17 40 0 0 0 0 0 0 0 0 0 0 0 0 0 3 0 10 99 72 60 8
140 149 586 1315 1579 1794 1838 1962 2174 2152 2405 2213 2011 1965 1808 1285 480 4 0 0 5 110 67 0 0 0 0 0 0 0 0 0 0 0 0 0 0 0 1 0 5 20 5
487 353 884 1414 1831 2106 2251 2485 2548 2460 2409 2112 2198 2007 1388 461 0 0 0 18 97 168 41 0 0 0 0 0 0 0 0 0 0 0 0 0 0 0 0 0 5 6 15
695 643 1074 1488 1795 2160 2395 2451 2407 2309 2137 2294 2082 1672 1016 70 0 0 0 41 211 136 64 31 0 0 0 0 0 0 0 0 0 0 0 0 0 0 0 0 0 0 0
1012 1186 1368 1637 1871 2129 2183 2081 2110 1980 2223 2095 1861 1591 515 28 0 0 11 359 296 193 23 17 7 0 0 0 0 0 0 0 0 0 0 0 0 0 0 0 0 0 0
145 8 1400 1613 1778 1945 1954 2023 1949 2093 2100 2022 1726 1317 191 0 7 79 516 509 419 347 78 0 0 0 0 0 0 0 0 0 0 0 0 0 0 0 0 0 0 0 0
869 85 1207 1529 1752 1889 1978 2102 1976 1921 2097 1837 1200 727 126 197 507 580 495 393 384 163 0 0 0 0 0 0 0 0 0 0 0 0 0 0 0 0 0 0 0 0 0
820 1162 1364 1488 1679 1882 1974 2021 1926 2085 2011 1327 655 587 497 640 477 446 386 238 107 6 0 0 0 0 0 0 0 0 0 0 0 0 0 0 0 0 0 0 0 0 0
835 1230 1423 1509 1667 1878 1983 1134 675 513 101 410 212 725 645 484 480 411 187 69 0 0 0 0 0 0 0 0 0 0 0 0 0 0 0 0 0 0 0 0 0 0 0
867 1246 1497 1636 1799 1772 1170 780 516 390 425 75 437 629 444 468 329 112 7 0 0 0 0 0 0 0 0 0 0 0 0 0 0 0 0 0 0 0 0 0 0 0 0
201 333 786 1736 1758 1223 1109 735 84 178 239 215 299 294 205 247 72 0 0 0 0 0 0 0 0 0 0 0 0 0 0 0 0 0 0 0 0 0 0 0 0 0 0
143 169 589 1251 1312 1352 893 303 54 79 287 342 264 276 278 75 0 0 0 0 0 0 0 0 0 0 0 0 0 0 0 0 0 0 0 0 0 0 0 0 0 0 0
532 456 725 1128 1312 1076 556 160 271 373 243 13 130 17 0 0 0 0 0 0 0 0 0 0 0 0 0 0 0 0 0 0 0 0 0 0 0 0 0 0 0 0 0
1622 1707 1516 1097 992 406 237 361 472 323 22 0 0 0 0 0 0 0 0 0 0 0 0 0 0 0 0 0 0 0 0 0 0 0 0 0 0 0 0 0 0 0 0
1734 1554 1657 1085 217 140 408 497 350 26 0 0 0 0 0 0 0 0 0 0 0 0 0 0 0 0 0 0 0 0 0 0 0 0 0 0 0 0 0 0 0 0 0
1490 1043 1120 841 296 47 189 367 138 1 0 0 0 0 0 0 0 0 0 0 0 0 0 0 0 0 0 0 0 0 0 0 0 0 0 0 0 0 0 0 0 0 0
1053 674 593 543 245 39 13 0 0 0 0 0 0 0 0 0 0 0 0 0 0 0 0 0 0 0 0 0 0 0 0 0 0 0 0 0 0 0 0 0 0 0 0
671 614 412 179 40 0 0 0 0 0 0 0 0 0 0 0 0 0 0 0 0 0 0 0 0 0 0 0 0 0 0 0 0 0 0 0 0 0 0 0 0 0 0
307 201 53 12 0 0 0 0 0 0 0 0 0 0 0 0 0 0 0 0 0 0 0 0 0 0 0 0 0 0 0 0 0 0 0 0 0 0 0 0 0 0 0
CIN
-230 -227 0 0 -166 -174 -196 -199 -155 -146 -102 -109 -69 -59 -42 -40 -68 -71 -55 -58 -71 -78 -70 -78 -73 -64 -41 -72 -77 -45 -40 -54 -78 -6 -30 -54 -68 -78 -78 -86 -100 -86 -103
-272 -221 -260 -275 -195 -19 -198 -186 -131 -126 -106 -85 -77 -59 -52 -51 -85 -90 -99 -94 -68 -63 -83 -77 -43 -39 -33 -41 -41 -20 -14 -65 -27 -3 -19 -77 -87 -80 -90 -101 -105 -113 -111
-280 -262 -250 -260 -268 -239 -202 -217 -190 -143 -89 -78 -83 -75 -79 -78 -72 -77 -79 -64 -71 -71 -55 -57 -36 -36 -49 -30 -16 -11 -9 -25 -46 -16 0 -49 -52 -62 -79 -106 -116 -127 -141
-306 -287 -250 -261 -275 -262 -281 -303 -253 -230 -214 -83 -61 -40 -27 -22 -43 -52 -74 -90 -88 -53 -47 -30 -31 -40 -26 -13 -10 -8 -15 -2 -19 -58 -13 -15 -9 0 -30 -56 -71 -90 -116
-338 -300 -255 -202 -234 -277 -262 -236 -256 -291 -307 -146 -49 -49 -35 -53 -62 -64 -47 -55 -63 -51 -41 -24 -24 -37 -35 -32 -32 -15 -10 -7 -12 -22 -5 -2 -3 -32 -8 -3 -19 -57 -90
-350 -360 -268 -244 -225 -262 -230 -212 -201 -188 -258 -169 -84 -27 -27 -30 -62 -89 -67 -75 -97 0 -162 -87 -106 -85 -83 0 -102 -97 -66 -17 -7 -15 -27 -9 -5 -2 0 -11 -17 -36 -71
-379 -377 -257 -199 -220 -204 -182 -169 -170 -139 -195 -158 -40 -21 -29 -32 -60 -97 -106 0 0 0 0 0 0 0 0 0 0 0 0 0 -20 -16 -69 -16 -35 -3 -7 -1 -3 -6 -49
-451 -417 -314 -197 -169 -180 -166 -133 -113 -112 -111 -59 -33 -32 -25 -25 -61 -105 -245 0 0 -205 -177 0 0 0 0 0 0 0 0 0 0 0 0 0 -6 0 -13 -4 -2 -4 -66
-332 -346 -321 -199 -147 -155 -153 -115 -107 -90 -57 -50 -39 -23 -27 -48 -120 -226 0 0 -222 -88 -116 0 0 0 0 0 0 0 0 0 0 0 0 0 0 0 -2 -2 -5 0 -1
-349 -375 -288 -177 -160 -163 -128 -100 -105 -99 -71 -54 -21 -23 -63 -136 0 0 0 -211 -96 -68 -106 0 0 0 0 0 0 0 0 0 0 0 0 0 0 0 0 0 -10 -8 -1
-188 -141 -210 -216 -200 -171 -119 -122 -117 -108 -80 -36 -33 -58 -87 -174 0 0 0 -146 -65 -74 -100 -116 0 0 0 0 0 0 0 0 0 0 0 0 0 0 0 0 0 0 0
-157 -158 -186 -229 -219 -150 -124 -135 -130 -125 -64 -47 -44 -41 -118 -227 0 0 -145 -66 -53 -68 -106 -141 -63 0 0 0 0 0 0 0 0 0 0 0 0 0 0 0 0 0 0
-201 -228 -232 -212 -181 -148 -131 -147 -149 -108 -73 -45 -38 -48 -195 -25 -37 -117 -51 -41 -45 -50 -73 0 0 0 0 0 0 0 0 0 0 0 0 0 0 0 0 0 0 0 0
-264 -373 -230 -185 -147 -141 -128 -127 -131 -123 -55 -39 -78 -98 -189 -136 -67 -52 -61 -61 -65 -89 -1 0 0 0 0 0 0 0 0 0 0 0 0 0 0 0 0 0 0 0 0
-258 -207 -164 -154 -138 -160 -150 -139 -96 -49 -35 -49 -113 -117 -107 -72 -76 -76 -80 -106 -127 -299 0 0 0 0 0 0 0 0 0 0 0 0 0 0 0 0 0 0 0 0 0
-216 -219 -171 -161 -171 -149 -113 -97 -97 -44 -59 -44 -127 -65 -62 -82 -80 -88 -127 -149 0 0 0 0 0 0 0 0 0 0 0 0 0 0 0 0 0 0 0 0 0 0 0
-208 -197 -156 -193 -207 -149 -175 -109 -33 -100 -127 -88 -53 -48 -79 -73 -101 -139 -163 0 0 0 0 0 0 0 0 0 0 0 0 0 0 0 0 0 0 0 0 0 0 0 0
-268 -316 -281 -251 -230 -233 -233 -196 -269 -299 -190 -105 -132 -78 -84 -71 -165 -29 0 0 0 0 0 0 0 0 0 0 0 0 0 0 0 0 0 0 0 0 0 0 0 0 0
-382 -381 -346 -289 -270 -237 -247 -302 -332 -331 -127 -56 -97 -125 -105 -136 0 0 0 0 0 0 0 0 0 0 0 0 0 0 0 0 0 0 0 0 0 0 0 0 0 0 0
-361 -343 -319 -297 -254 -264 -285 -345 -266 -158 -141 -278 -215 -233 0 0 0 0 0 0 0 0 0 0 0 0 0 0 0 0 0 0 0 0 0 0 0 0 0 0 0 0 0
-287 -320 -310 -252 -252 -354 -342 -219 -179 -167 -316 0 0 0 0 0 0 0 0 0 0 0 0 0 0 0 0 0 0 0 0 0 0 0 0 0 0 0 0 0 0 0 0
-300 -332 -252 -260 -343 -388 -256 -215 -214 -396 0 0 0 0 0 0 0 0 0 0 0 0 0 0 0 0 0 0 0 0 0 0 0 0 0 0 0 0 0 0 0 0 0
-307 -348 -299 -312 -405 -460 -315 -241 -330 -48 0 0 0 0 0 0 0 0 0 0 0 0 0 0 0 0 0 0 0 0 0 0 0 0 0 0 0 0 0 0 0 0 0
-279 -343 -331 -309 -388 -461 -347 0 0 0 0 0 0 0 0 0 0 0 0 0 0 0 0 0 0 0 0 0 0 0 0 0 0 0 0 0 0 0 0 0 0 0 0
-341 -330 -317 -381 -399 0 0 0 0 0 0 0 0 0 0 0 0 0 0 0 0 0 0 0 0 0 0 0 0 0 0 0 0 0 0 0 0 0 0 0 0 0 0
-382 -363 -348 -406 0 0 0 0 0 0 0 0 0 0 0 0 0 0 0 0 0 0 0 0 0 0 0 0 0 0 0 0 0 0 0 0 0 0 0 0 0 0 0
Wind_Speed
15 17 18 20 22 22 20 20 22 23 23 21 19 16 12 8 8 10 14 14 15 21 22 24 21 17 14 16 25 20 20 24 23 24 20 4 7 7 8 9 8 10 13
14 16 18 20 23 23 21 21 22 23 23 20 17 17 14 13 11 12 10 9 13 16 19 21 19 17 19 23 23 21 21 23 20 22 27 26 24 6 8 10 7 13 12
16 16 18 20 22 22 21 20 21 21 21 19 16 16 13 9 10 11 10 8 10 13 16 21 18 21 23 25 23 21 17 20 20 16 19 25 22 22 14 5 18 18 7
18 17 16 18 20 22 20 19 19 19 20 19 16 15 13 12 11 11 12 11 10 10 12 14 18 22 23 24 24 18 14 14 11 18 8 5 8 20 22 17 18 19 18
17 16 17 16 17 18 19 18 17 17 19 16 15 13 11 11 11 13 14 15 13 15 18 18 20 22 22 23 24 23 25 17 11 4 7 4 1 1 4 14 21 22 21
16 17 16 15 12 12 15 16 16 15 17 15 12 11 10 10 12 14 16 17 17 18 19 21 21 22 22 23 24 24 25 25 6 3 1 7 6 10 4 3 7 24 28
10 12 11 16 17 14 14 14 14 13 15 14 12 10 10 10 11 12 14 15 17 17 19 21 22 23 23 22 22 24 26 26 24 10 4 8 13 9 8 4 9 15 15
15 10 16 17 16 17 15 13 14 13 15 14 13 11 10 10 10 11 12 14 15 17 18 21 23 24 24 23 24 26 27 27 27 28 29 23 21 22 18 13 7 5 5
18 14 18 15 16 15 15 16 14 14 15 14 12 11 10 11 11 11 11 13 15 16 18 20 22 23 24 23 25 27 29 29 29 28 28 28 27 24 22 19 16 12 10
9 6 16 17 15 13 14 16 15 16 16 14 12 12 12 12 12 14 13 13 15 17 19 20 22 24 25 22 25 27 29 30 30 29 29 29 27 27 25 22 20 16 13
11 6 15 14 13 13 17 15 14 14 15 13 13 13 13 12 14 14 14 14 15 17 19 20 22 23 25 23 24 27 29 31 31 30 30 29 28 29 27 26 23 21 19
8 11 4 10 13 14 16 12 12 13 13 12 12 13 12 12 11 11 12 13 15 19 21 22 23 25 26 23 25 27 29 31 31 31 30 30 29 29 29 28 28 26 25
12 13 4 11 16 17 14 12 12 11 12 13 12 12 11 10 9 10 11 13 16 19 21 23 25 26 26 25 25 27 29 30 31 30 30 29 29 29 30 29 29 28 27
16 20 16 16 20 14 11 10 10 10 12 10 12 9 9 9 11 10 11 15 18 19 21 24 24 26 27 27 27 28 29 29 29 30 30 29 29 29 30 30 31 31 30
18 17 20 19 19 10 9 10 6 6 8 8 7 6 9 10 10 11 14 15 17 20 22 24 25 26 27 28 27 27 27 29 30 31 31 31 29 30 31 31 33 33 32
22 16 18 17 14 8 9 13 13 4 12 3 5 4 6 8 10 12 14 16 17 20 22 23 24 24 25 27 28 28 28 30 31 32 33 32 32 34 35 35 35 31 30
14 12 12 13 5 4 4 8 1 10 8 5 7 7 7 7 10 13 13 15 17 18 20 20 23 25 26 28 28 29 28 29 30 31 32 32 33 35 36 36 35 34 33
14 7 5 2 3 3 4 7 5 9 7 7 10 7 4 5 9 13 14 15 17 18 19 20 22 24 27 28 27 27 28 29 30 31 31 33 35 36 36 35 36 36 35
3 4 2 1 1 4 6 7 9 8 12 12 7 9 7 6 10 13 14 15 15 16 17 19 22 24 25 26 27 27 28 29 30 31 32 33 35 38 38 36 36 37 36
4 4 4 3 5 5 7 8 8 11 12 6 8 8 8 9 11 12 13 14 14 15 17 19 21 22 23 25 26 28 28 30 31 33 34 35 37 38 38 37 38 40 40
4 2 3 5 6 12 8 7 8 7 7 9 8 8 9 10 10 12 13 13 14 15 16 18 19 21 23 25 26 27 29 30 32 34 36 36 38 39 39 39 39 41 41
7 4 3 4 6 8 6 7 7 8 7 8 8 8 9 10 12 13 13 13 13 14 15 16 18 20 22 23 25 27 29 30 33 35 36 37 40 41 41 40 42 42 41
8 5 3 4 5 5 5 6 6 8 8 8 8 8 10 11 12 12 13 14 13 14 14 16 18 20 21 23 25 27 29 31 33 33 35 37 40 41 42 43 44 44 42
7 6 7 6 6 6 6 7 8 7 6 6 7 8 9 10 11 13 13 14 13 13 14 16 19 21 22 23 25 27 28 30 31 32 33 35 37 39 41 42 43 45 44
6 6 6 6 7 7 6 6 6 5 6 6 7 8 8 8 10 12 12 12 11 12 15 16 18 20 24 24 23 25 27 28 30 32 33 35 38 40 42 43 43 44 46
4 5 6 9 9 9 9 7 6 6 6 6 7 7 8 9 11 12 13 13 12 11 13 17 16 20 20 22 23 24 25 27 29 31 33 36 37 40 42 43 44 43 46
Wind_Direction
155 148 151 150 155 159 159 158 158 160 154 157 165 164 153 81 56 27 357 357 1 337 345 348 348 348 342 343 302 342 343 336 339 331 334 270 240 243 231 210 215 213 208
136 138 144 146 152 153 147 154 159 160 162 162 166 172 163 152 137 155 148 67 25 13 7 3 2 347 326 309 330 337 344 347 360 346 328 326 321 303 223 290 232 211 210
151 142 148 150 152 155 151 156 163 162 162 161 155 163 157 102 89 122 125 113 68 43 28 355 3 314 307 312 329 341 358 355 360 7 348 329 324 320 331 300 298 299 284
171 155 147 153 157 162 156 151 157 165 159 153 149 153 166 154 126 84 71 85 98 104 82 63 24 341 329 321 325 0 18 19 19 12 16 359 333 316 310 314 309 303 304
161 158 160 156 158 154 159 158 155 155 157 145 142 137 136 110 101 53 38 28 52 51 27 30 15 354 344 342 328 335 340 22 41 245 267 35 139 251 251 267 299 303 299
158 159 160 154 152 148 150 149 148 147 155 147 131 112 92 76 48 39 34 35 33 21 15 12 8 8 1 342 343 353 346 348 90 87 124 270 63 32 31 213 215 295 294
125 137 142 153 153 152 151 143 141 130 135 135 125 109 79 62 52 42 35 37 36 35 26 14 2 353 345 340 347 345 347 351 5 57 78 71 52 81 72 80 340 318 334
164 140 160 158 153 151 145 138 138 127 130 132 126 110 82 68 56 51 36 27 27 28 28 19 7 360 357 6 2 357 352 351 350 344 345 20 38 29 35 48 55 176 349
177 169 160 150 150 143 141 141 136 134 133 131 124 112 90 89 76 64 48 24 14 8 9 5 3 3 4 10 4 359 354 353 349 343 344 352 1 9 12 21 31 39 13
131 122 160 151 147 138 136 138 134 134 134 126 117 115 107 92 84 88 80 45 15 3 4 2 1 359 359 7 1 357 353 349 349 349 344 345 349 354 357 2 3 15 12
143 110 168 152 146 141 144 139 135 134 134 124 118 116 112 101 102 95 81 70 40 16 6 5 358 356 351 358 355 351 348 346 345 345 342 342 350 344 343 342 348 351 353
104 137 186 151 153 153 152 143 140 139 136 125 119 120 111 103 90 70 68 57 30 359 345 349 350 347 346 356 352 347 346 344 343 341 343 342 347 345 341 341 338 337 337
133 139 165 160 163 163 162 156 153 145 139 131 123 115 105 91 76 60 45 30 15 3 354 349 343 342 348 349 347 344 343 344 344 346 346 348 348 344 339 336 335 335 336
158 168 164 167 172 171 175 171 166 157 149 134 124 105 87 75 69 47 23 360 356 352 350 349 349 345 341 339 342 344 344 345 345 344 344 345 346 343 339 336 332 328 329
163 159 167 172 178 198 200 193 198 184 163 137 111 96 87 81 67 46 13 3 354 350 346 345 344 343 342 342 345 347 349 347 344 343 341 340 342 340 339 338 331 328 327
172 167 173 177 191 202 271 293 296 242 282 276 77 58 56 54 53 40 26 15 5 358 347 344 350 349 349 345 345 348 347 346 343 339 337 338 339 334 330 327 326 331 331
171 165 162 176 234 283 342 13 339 37 60 69 47 350 353 20 25 19 24 20 12 20 13 358 353 348 348 347 348 351 352 350 348 345 344 343 340 338 335 332 331 329 326
178 162 150 254 319 35 62 103 101 71 82 99 108 85 103 63 23 9 11 11 13 13 17 13 4 356 351 350 354 356 356 355 354 353 350 347 343 340 337 336 334 331 330
160 154 141 194 67 59 80 63 52 69 113 115 74 89 84 43 22 8 10 13 16 21 17 12 7 1 0 2 4 4 4 2 360 358 355 353 349 342 338 336 333 332 331
171 153 160 165 144 95 89 71 60 99 110 80 87 63 62 36 21 19 13 13 27 27 22 16 10 12 13 11 11 10 10 8 7 6 4 1 354 349 345 343 339 334 330
300 137 157 225 215 120 99 87 96 106 89 91 66 50 33 31 30 22 23 27 27 27 21 19 19 18 15 12 10 11 9 6 3 0 0 1 357 354 351 349 346 339 336
339 7 355 2 39 64 73 90 90 72 76 67 64 51 43 33 31 28 26 30 28 22 20 21 17 15 11 8 7 6 6 6 1 357 358 357 355 354 354 353 350 346 342
358 21 59 43 30 46 77 88 78 93 84 66 65 50 37 33 34 30 22 16 14 13 17 13 9 6 4 2 0 0 1 0 359 359 358 356 355 355 354 352 351 348 344
1 10 28 39 62 64 78 90 93 89 74 64 54 46 43 35 26 20 17 14 12 12 13 3 359 357 357 359 360 359 358 358 357 356 356 356 355 355 353 350 350 349 346
357 26 25 45 61 67 79 92 92 82 76 62 47 35 39 38 21 13 16 19 18 13 1 356 355 352 350 354 358 357 355 354 351 349 350 350 350 349 350 350 351 351 350
30 37 83 92 90 90 99 90 88 88 72 41 24 20 17 10 4 360 360 1 2 360 357 351 351 347 349 351 352 353 352 350 349 348 347 346 347 347 348 348 348 350 351